User: anonymous   Login
Location: Unspecified
(0.0000°N, 0.0000°E)
Time: 12:08:43
(UTC+00:00)
Language:

USA 113 - Orbit

View from above orbital plane
View from above orbital plane
View from above satellite
View from above satellite

Ground track
Ground track

The orbit data is extracted from the following two-line orbital elements,

1 23628U 95038A   18250.84615203 0.00000000  00000-0  00000-0 0    04
2 23628  10.7947  34.9447 0007799 139.7462 220.3273  1.00270000    05
Epoch (UTC): 07 September 2018 20:18:27
Eccentricity: 0.0007799
inclination: 10.7947°
perigee height: 35754 km
apogee height: 35819 km
right ascension of ascending node: 34.9447°
argument of perigee: 139.7462°
revolutions per day: 1.00270000
mean anomaly at epoch: 220.3273°
orbit number at epoch: 0

The dashed part of the orbit path shows where the satellite is in the earth's shadow,  

DLR